TimeCST,TemperatureF,Dew PointF,Humidity,Sea Level PressureIn,VisibilityMPH,Wind Direction,Wind SpeedMPH,Gust SpeedMPH,PrecipitationIn,Events,Conditions,WindDirDegrees,DateUTC
12:00 AM,28.4,26.6,93,29.39,3.0,NW,3.5,-,0.00,Snow,Light Snow,320,2014-01-11 06:00:00
12:29 AM,28.4,26.6,93,29.37,1.8,NW,3.5,-,0.00,Snow,Light Snow,310,2014-01-11 06:29:00
12:44 AM,28.4,26.6,93,29.37,3.0,WNW,3.5,-,0.00,Snow,Light Snow,300,2014-01-11 06:44:00
12:54 AM,28.9,27.0,92,29.42,6.0,Calm,Calm,-,0.00,,Overcast,0,2014-01-11 06:54:00
1:07 AM,28.4,26.6,93,29.36,5.0,Calm,Calm,-,N/A,,Overcast,0,2014-01-11 07:07:00
1:54 AM,28.9,27.0,92,29.40,4.0,Calm,Calm,-,0.00,,Overcast,0,2014-01-11 07:54:00
2:16 AM,28.4,26.6,93,29.35,6.0,WNW,3.5,-,N/A,,Overcast,290,2014-01-11 08:16:00
2:39 AM,28.4,26.6,93,29.34,1.8,NW,3.5,-,0.00,Snow,Light Snow,320,2014-01-11 08:39:00
2:54 AM,28.0,27.0,96,29.38,2.0,Calm,Calm,-,0.00,Snow,Light Snow,0,2014-01-11 08:54:00
3:10 AM,28.4,26.6,93,29.32,3.0,NW,4.6,-,0.00,Snow,Light Snow,310,2014-01-11 09:10:00
3:39 AM,28.4,26.6,93,29.31,7.0,NW,5.8,-,0.00,,Overcast,310,2014-01-11 09:39:00
3:54 AM,28.0,26.1,92,29.36,8.0,NW,5.8,-,0.00,,Overcast,320,2014-01-11 09:54:00
4:54 AM,28.0,25.0,88,29.35,8.0,WNW,4.6,-,0.00,,Overcast,300,2014-01-11 10:54:00
5:51 AM,28.4,24.8,86,29.31,1.8,NW,10.4,-,0.00,Snow,Light Snow,310,2014-01-11 11:51:00
5:54 AM,28.0,25.0,88,29.36,1.2,NW,10.4,-,0.00,Snow,Light Snow,310,2014-01-11 11:54:00
6:19 AM,28.4,24.8,86,29.31,1.2,NW,11.5,-,0.00,Snow,Light Snow,320,2014-01-11 12:19:00
6:54 AM,28.0,24.1,85,29.36,2.0,NW,12.7,-,0.00,Snow,Light Snow,310,2014-01-11 12:54:00
7:02 AM,28.4,24.8,86,29.31,2.5,NW,10.4,-,0.00,Snow,Light Snow,320,2014-01-11 13:02:00
7:22 AM,28.4,24.8,86,29.32,4.0,NW,9.2,-,0.00,Snow,Light Snow,310,2014-01-11 13:22:00
7:54 AM,27.0,24.1,89,29.37,4.0,NW,8.1,-,0.00,Snow,Light Snow,320,2014-01-11 13:54:00
8:54 AM,27.0,24.1,89,29.39,4.0,NW,9.2,-,0.00,Snow,Light Snow,310,2014-01-11 14:54:00
9:29 AM,28.4,24.8,86,29.34,8.0,NW,10.4,-,0.00,,Overcast,310,2014-01-11 15:29:00
9:54 AM,28.0,23.0,81,29.39,10.0,WNW,13.8,-,0.00,,Overcast,300,2014-01-11 15:54:00
10:13 AM,28.4,24.8,86,29.35,9.0,NW,11.5,-,N/A,,Overcast,310,2014-01-11 16:13:00
10:54 AM,28.0,24.1,85,29.40,10.0,NW,15.0,19.6,N/A,,Overcast,310,2014-01-11 16:54:00
11:02 AM,28.4,23.0,80,29.35,10.0,NW,15.0,21.9,N/A,,Overcast,310,2014-01-11 17:02:00
11:54 AM,28.0,24.1,85,29.38,10.0,WNW,9.2,18.4,N/A,,Overcast,300,2014-01-11 17:54:00
12:54 PM,28.0,24.1,85,29.37,9.0,WNW,11.5,-,N/A,,Overcast,300,2014-01-11 18:54:00
1:54 PM,28.0,23.0,81,29.39,10.0,NW,13.8,-,N/A,,Overcast,310,2014-01-11 19:54:00
2:46 PM,28.4,23.0,80,29.36,10.0,NW,9.2,-,N/A,,Overcast,310,2014-01-11 20:46:00
2:54 PM,28.0,23.0,81,29.41,10.0,WNW,11.5,-,N/A,,Overcast,300,2014-01-11 20:54:00
3:54 PM,28.9,24.1,82,29.44,10.0,WNW,5.8,-,N/A,,Overcast,300,2014-01-11 21:54:00
4:54 PM,28.9,24.1,82,29.46,10.0,WNW,11.5,-,N/A,,Overcast,300,2014-01-11 22:54:00
5:54 PM,30.0,25.0,82,29.49,10.0,WNW,12.7,-,N/A,,Overcast,300,2014-01-11 23:54:00
6:21 PM,30.2,24.8,80,29.45,10.0,WNW,13.8,-,N/A,,Overcast,300,2014-01-12 00:21:00
6:30 PM,30.2,24.8,80,29.46,10.0,WNW,10.4,-,N/A,,Overcast,300,2014-01-12 00:30:00
6:51 PM,30.2,24.8,80,29.47,10.0,WNW,11.5,-,N/A,,Overcast,300,2014-01-12 00:51:00
6:54 PM,30.0,25.0,82,29.52,10.0,WNW,10.4,-,N/A,,Overcast,300,2014-01-12 00:54:00
7:09 PM,30.2,24.8,80,29.47,10.0,WNW,13.8,19.6,N/A,,Overcast,300,2014-01-12 01:09:00
7:54 PM,30.0,24.1,79,29.54,10.0,WNW,13.8,20.7,N/A,,Overcast,300,2014-01-12 01:54:00
8:54 PM,30.0,23.0,75,29.56,10.0,WNW,10.4,-,N/A,,Overcast,290,2014-01-12 02:54:00
9:54 PM,30.0,23.0,75,29.57,10.0,West,6.9,-,N/A,,Overcast,270,2014-01-12 03:54:00
10:54 PM,28.9,23.0,78,29.59,10.0,West,6.9,-,N/A,,Overcast,280,2014-01-12 04:54:00
11:54 PM,28.9,21.9,75,29.59,10.0,West,5.8,-,N/A,,Overcast,270,2014-01-12 05:54:00